Temp
51 51 51 52 51 51 51 52 52 52 52 53 53 53 53 53 53 49 44 44 41 37 42 46 47 42 41 39 36 41 37 36 36 32 31 30 33 34 34 36 34 33 31 32 34 30 29 42 43 42 44 49 50 52
51 51 51 51 51 51 51 51 52 52 52 52 53 53 53 53 53 53 43 45 46 41 40 47 49 51 49 48 42 42 40 39 40 33 34 35 33 35 34 28 39 32 35 32 33 33 39 44 45 48 48 47 49 51
51 51 51 50 50 50 50 51 51 52 52 52 52 52 53 53 53 52 45 49 43 37 39 39 43 52 54 52 53 41 38 39 37 42 37 36 32 36 32 33 36 40 41 33 35 41 42 44 48 49 49 49 50 55
50 50 50 50 50 50 50 51 51 52 51 51 52 52 53 53 53 52 47 48 44 40 37 40 54 51 57 53 50 49 42 40 40 42 38 37 34 41 35 37 36 40 41 38 38 43 45 47 48 49 50 53 53 63
49 49 50 50 50 50 50 50 50 51 51 52 53 53 53 53 52 51 47 49 47 40 38 39 47 52 51 51 49 47 42 43 40 36 38 37 43 41 41 40 35 42 40 36 36 44 44 45 50 52 50 51 56 59
49 49 49 49 49 49 49 50 50 50 51 52 52 53 53 52 52 47 40 47 49 47 40 35 44 48 48 51 48 46 44 44 42 39 36 41 46 42 35 35 42 45 45 46 42 49 52 53 55 54 51 52 59 59
48 48 49 49 49 49 49 50 50 51 51 51 51 51 51 51 48 43 43 47 51 51 42 34 36 51 54 49 46 44 45 45 44 43 37 39 44 44 35 32 44 47 50 49 51 50 49 52 51 55 54 56 57 57
48 48 48 49 49 49 49 49 50 50 50 50 51 51 51 51 49 45 47 50 51 47 45 36 36 40 51 42 41 44 41 43 41 40 40 39 42 39 34 45 45 48 50 52 52 52 50 52 53 53 55 55 53 53
48 48 48 48 48 49 49 49 49 50 50 50 51 51 47 44 45 49 55 54 51 47 39 40 32 30 51 45 46 44 42 35 41 38 38 40 36 32 40 42 44 48 44 50 51 53 52 50 50 50 50 52 52 51
47 48 48 48 48 48 49 49 49 49 50 51 48 46 44 47 56 54 48 44 43 44 43 39 40 34 44 43 44 39 39 36 33 38 45 36 33 44 46 47 48 49 50 47 44 44 45 46 47 47 48 50 52 51
48 48 48 48 48 48 49 49 49 49 51 44 40 41 45 53 48 44 40 38 40 37 38 38 40 37 45 40 38 39 31 36 32 35 37 29 28 41 48 49 50 53 49 49 48 48 46 50 48 47 49 51 50 50
47 47 48 48 48 48 49 49 49 44 43 44 44 46 45 42 42 39 37 42 40 37 40 40 41 42 43 45 36 37 31 34 31 43 38 30 39 45 50 53 50 53 50 50 50 50 49 49 48 51 51 48 47 48
47 47 47 48 48 49 50 49 49 49 48 46 43 40 38 40 32 36 30 35 37 43 46 45 43 44 44 44 37 34 31 28 37 29 33 36 46 49 49 51 51 51 51 51 52 52 52 51 51 53 52 49 49 49
47 47 47 47 48 49 49 49 49 46 42 40 38 33 34 34 36 36 38 41 47 47 49 44 42 41 42 38 38 33 37 34 28 25 31 38 43 49 50 52 51 51 50 51 52 53 53 51 49 52 54 50 48 47
47 47 47 48 49 48 48 48 48 41 38 39 38 32 33 39 41 44 47 45 49 47 48 47 45 42 35 39 41 36 33 26 25 25 33 40 46 48 49 50 50 49 51 52 52 52 53 52 50 49 51 49 48 49
47 47 47 49 48 48 47 46 43 40 42 38 37 34 38 38 41 42 43 44 49 49 49 47 42 37 36 36 34 33 29 26 29 32 40 44 46 50 49 51 52 52 50 49 51 54 53 52 51 50 49 50 49 49
46 38 47 47 47 47 46 40 41 40 37 37 35 40 38 39 40 44 44 45 53 48 40 42 38 39 40 31 30 32 31 33 37 40 42 45 46 49 51 52 53 52 51 50 50 51 51 54 51 49 47 46 47 47
37 40 46 47 46 44 41 42 41 40 35 38 35 37 37 39 41 42 46 48 45 46 45 41 44 38 34 31 27 35 38 41 44 45 46 48 50 53 53 51 54 52 50 51 50 50 49 49 47 45 46 45 45 44
41 43 46 47 45 41 34 39 40 33 35 38 39 40 40 42 45 48 48 50 50 52 45 43 40 37 36 40 41 41 42 45 46 48 46 48 49 53 55 53 53 50 49 48 48 49 47 47 46 45 44 44 41 41
46 46 46 47 47 36 34 34 41 36 31 36 39 40 38 39 45 44 47 47 46 45 42 42 40 42 43 46 45 45 47 50 47 44 45 48 50 52 50 53 51 50 49 48 50 46 46 45 46 45 44 42 41 39
43 43 46 43 38 38 35 34 34 34 36 35 40 38 38 40 39 41 40 44 41 39 39 44 45 47 48 48 49 49 47 49 47 48 46 46 52 51 50 51 50 48 47 45 48 47 46 49 47 44 44 43 42 41
37 46 39 41 36 36 33 36 34 37 34 35 36 38 34 30 34 37 41 38 39 42 43 47 50 53 55 52 52 51 52 51 51 51 47 47 51 49 50 51 49 46 45 45 48 48 48 48 45 47 45 42 41 41
43 41 37 38 34 32 30 39 33 35 31 33 34 34 33 31 37 43 36 41 43 47 51 52 53 54 53 57 56 53 52 51 48 50 51 53 54 50 48 49 49 48 48 46 50 49 45 45 45 45 44 42 41 40
44 35 33 32 29 23 35 32 31 31 33 29 30 31 33 35 38 36 35 37 41 43 42 43 44 48 49 50 47 49 50 50 50 51 55 53 49 48 53 51 50 50 51 50 50 48 47 47 44 46 44 43 40 39
27 23 30 26 29 27 29 30 31 27 29 29 29 29 30 36 28 30 33 35 39 40 42 44 44 43 43 45 47 49 55 53 47 46 50 56 51 47 46 47 50 51 54 52 49 48 47 46 46 45 44 42 39 38
17 27 21 28 28 28 27 27 29 27 31 28 31 35 33 31 31 31 35 36 38 38 38 40 41 42 42 44 48 48 50 50 49 48 48 54 53 51 49 47 47 49 52 53 52 50 48 47 45 43 41 39 36 39
20 21 29 37 33 34 29 29 29 25 27 28 29 30 30 27 28 33 37 37 38 40 41 42 43 42 42 43 48 50 50 50 49 51 52 54 55 55 54 51 50 54 55 55 54 53 49 47 44 43 42 41 40 39
28 31 27 27 32 33 28 27 28 27 29 33 32 27 26 28 30 34 37 41 43 42 42 43 44 44 44 43 44 45 46 50 52 53 55 51 49 47 50 50 52 44 56 57 55 54 51 48 46 44 42 40 38 38
29 33 33 28 29 29 29 29 30 33 35 33 29 28 34 36 34 35 37 38 40 39 38 39 40 43 43 45 44 44 42 42 44 43 42 40 41 44 47 49 47 50 52 47 38 47 50 49 47 44 42 40 38 36
28 35 29 29 28 27 31 35 32 36 36 36 38 40 40 34 35 38 36 36 35 35 37 37 39 39 39 39 40 40 41 40 40 40 41 41 43 44 45 47 48 47 48 47 43 40 38 42 39 40 38 36 33 30
34 32 31 30 30 33 35 36 38 39 37 34 37 36 35 33 34 34 34 35 35 35 35 34 36 38 38 36 36 36 37 39 40 41 42 44 44 44 45 47 49 49 48 47 45 43 41 39 37 35 33 31 31 31
31 31 31 30 33 35 36 33 31 33 35 34 32 35 34 32 28 31 33 33 32 31 32 34 34 35 38 38 38 37 34 35 35 36 39 41 42 43 44 46 47 47 44 42 41 38 36 34 33 32 32 31 31 30
30 34 34 32 30 31 35 33 32 31 31 29 29 31 30 27 23 29 34 34 32 32 33 35 36 36 36 37 37 37 36 37 35 33 33 33 33 36 41 42 42 41 40 39 38 37 36 35 33 33 33 32 31 30
MSLP
1027.47 1027.02 1026.60 1026.19 1025.76 1025.32 1024.91 1024.46 1024.03 1023.62 1023.26 1022.82 1022.41 1021.99 1021.60 1021.25 1020.92 1020.84 1020.60 1020.48 1020.94 1019.61 1016.82 1016.14 1015.63 1015.53 1015.00 1014.97 1014.64 1013.95 1013.75 1013.49 1013.13 1012.71 1012.28 1011.66 1010.64 1009.89 1009.25 1008.76 1008.24 1007.87 1007.50 1006.77 1007.09 1006.86 1006.51 1004.79 1003.75 1002.96 1003.89 1002.38 1001.29 1000.38
1026.89 1026.43 1026.03 1025.67 1025.23 1024.78 1024.41 1023.99 1023.47 1023.02 1022.63 1022.26 1021.88 1021.48 1021.09 1020.68 1020.37 1020.12 1020.02 1019.80 1019.78 1019.53 1016.53 1015.21 1014.40 1013.70 1013.92 1013.22 1014.21 1014.30 1014.55 1014.69 1014.19 1013.89 1013.27 1012.49 1011.42 1010.44 1009.87 1009.32 1008.73 1008.34 1008.43 1007.75 1007.44 1007.13 1006.29 1005.24 1004.05 1003.96 1003.51 1003.39 1001.87 1001.24
1026.39 1025.95 1025.57 1025.18 1024.76 1024.27 1023.85 1023.38 1022.84 1022.39 1021.97 1021.57 1021.23 1020.89 1020.51 1020.11 1019.75 1019.62 1019.32 1019.15 1019.38 1018.63 1015.95 1014.64 1013.02 1011.96 1011.57 1012.12 1012.52 1013.60 1014.22 1014.25 1014.37 1014.13 1013.82 1012.80 1011.84 1010.95 1010.24 1009.69 1009.35 1008.79 1008.26 1008.18 1007.88 1006.96 1006.32 1005.11 1004.65 1004.69 1003.97 1004.00 1002.65 1001.41
1025.97 1025.62 1025.19 1024.74 1024.33 1023.87 1023.40 1022.83 1022.25 1021.79 1021.37 1020.89 1020.48 1020.14 1019.81 1019.46 1019.11 1018.90 1018.63 1018.45 1018.86 1018.21 1016.68 1013.64 1012.08 1011.39 1010.80 1010.96 1011.78 1012.29 1013.29 1014.00 1014.22 1014.01 1013.54 1012.55 1011.52 1010.82 1010.15 1009.79 1009.32 1008.72 1008.34 1007.89 1007.21 1006.22 1005.75 1005.53 1005.28 1004.95 1003.11 1002.11 1001.17 998.65
1025.62 1025.22 1024.81 1024.38 1023.94 1023.46 1022.96 1022.41 1021.73 1021.26 1020.85 1020.27 1019.76 1019.31 1018.98 1018.66 1018.34 1017.96 1017.38 1016.95 1017.45 1017.93 1016.20 1013.96 1012.25 1010.62 1010.49 1010.71 1011.42 1012.21 1012.98 1013.77 1014.03 1013.68 1012.97 1011.80 1010.68 1010.28 1010.08 1009.56 1008.97 1008.27 1008.07 1008.04 1007.69 1006.74 1005.64 1005.21 1005.74 1004.52 1002.91 1002.54 1000.91 1000.16
1025.17 1024.81 1024.39 1023.92 1023.46 1022.99 1022.49 1021.88 1021.20 1020.64 1020.12 1019.64 1019.19 1018.76 1018.48 1018.14 1017.79 1017.66 1016.64 1016.10 1016.38 1017.18 1016.40 1014.63 1012.34 1010.65 1010.72 1010.87 1011.29 1011.99 1012.54 1013.23 1013.37 1013.07 1012.17 1010.77 1009.52 1009.81 1010.00 1009.58 1008.59 1008.03 1007.58 1007.35 1007.25 1006.59 1006.17 1005.31 1003.97 1003.96 1003.77 1003.35 1002.47 1001.33
1024.89 1024.49 1024.01 1023.49 1022.99 1022.49 1021.95 1021.33 1020.62 1019.93 1019.29 1018.71 1018.24 1017.87 1017.59 1017.50 1017.52 1017.50 1016.32 1016.04 1016.16 1016.56 1015.87 1014.74 1013.03 1010.49 1009.89 1010.74 1011.15 1011.54 1012.14 1012.37 1012.65 1012.20 1011.59 1010.30 1009.32 1009.28 1009.43 1009.16 1008.10 1007.70 1007.28 1006.93 1006.43 1005.74 1005.13 1004.44 1004.44 1004.10 1004.82 1004.96 1003.82 1002.85
1024.56 1024.14 1023.61 1023.09 1022.60 1022.07 1021.50 1020.83 1020.10 1019.31 1018.49 1017.65 1016.96 1016.56 1016.27 1016.40 1016.52 1016.32 1014.98 1014.79 1015.55 1015.76 1015.30 1014.83 1013.08 1011.39 1009.72 1010.32 1010.61 1010.26 1011.11 1011.78 1011.79 1011.47 1010.69 1010.01 1009.42 1009.20 1009.29 1008.54 1007.99 1007.57 1007.16 1006.73 1006.45 1006.37 1006.31 1005.85 1005.32 1005.51 1005.80 1005.81 1005.16 1004.86
1024.23 1023.77 1023.24 1022.69 1022.17 1021.67 1021.10 1020.43 1019.70 1018.75 1017.64 1016.49 1015.54 1015.01 1015.18 1015.47 1015.48 1014.70 1014.29 1014.25 1014.54 1015.07 1014.86 1014.27 1013.30 1011.85 1009.75 1010.23 1010.01 1009.83 1010.11 1011.07 1010.60 1010.75 1010.14 1009.65 1009.64 1009.48 1008.85 1008.31 1007.75 1007.43 1007.25 1007.00 1006.84 1006.85 1007.23 1007.67 1007.91 1007.03 1006.71 1006.61 1006.51 1006.14
1023.85 1023.39 1022.88 1022.27 1021.75 1021.23 1020.67 1020.07 1019.34 1018.32 1016.97 1015.52 1014.91 1014.99 1015.15 1015.12 1014.41 1014.68 1014.53 1014.58 1014.58 1014.55 1014.39 1013.47 1012.45 1011.76 1010.64 1010.52 1010.47 1010.38 1010.22 1010.37 1010.36 1009.95 1009.30 1009.69 1009.66 1008.85 1008.44 1008.16 1007.74 1007.41 1007.32 1007.64 1007.75 1007.83 1007.85 1007.87 1007.95 1008.07 1007.42 1007.24 1007.02 1006.20
1023.56 1023.11 1022.56 1021.99 1021.39 1020.84 1020.28 1019.73 1019.08 1018.32 1016.88 1016.46 1016.32 1016.20 1015.96 1014.85 1014.68 1014.38 1014.10 1014.33 1014.16 1013.94 1013.18 1012.02 1011.40 1011.14 1010.17 1010.30 1010.48 1010.66 1010.97 1010.63 1010.42 1009.94 1009.55 1009.81 1009.63 1008.74 1008.05 1007.99 1007.61 1007.32 1007.45 1007.61 1007.66 1007.74 1007.83 1007.72 1007.86 1007.84 1007.72 1007.46 1006.63 1006.35
1023.20 1022.77 1022.17 1021.65 1021.10 1020.45 1019.81 1019.31 1018.92 1018.77 1018.44 1017.91 1017.59 1017.01 1016.33 1015.32 1014.55 1014.10 1013.23 1012.72 1012.53 1011.74 1010.78 1010.30 1009.74 1010.17 1009.80 1009.77 1010.58 1010.85 1011.27 1011.20 1010.86 1010.09 1009.90 1009.46 1008.42 1007.86 1007.66 1007.53 1007.23 1007.33 1007.49 1007.62 1007.54 1007.58 1007.62 1007.57 1007.39 1007.29 1007.33 1007.45 1007.41 1007.53
1022.97 1022.34 1021.77 1021.17 1020.61 1020.08 1019.63 1019.34 1018.92 1018.45 1017.56 1016.81 1016.79 1016.50 1015.98 1014.89 1014.39 1013.10 1012.32 1011.31 1010.43 1009.41 1008.62 1008.50 1008.79 1009.02 1009.34 1009.62 1010.60 1011.07 1011.47 1011.40 1010.88 1010.70 1009.70 1008.69 1007.71 1007.29 1007.44 1007.38 1007.40 1007.59 1007.62 1007.59 1007.67 1007.84 1007.82 1007.79 1007.73 1007.47 1007.23 1007.49 1007.45 1006.92
1022.40 1021.90 1021.40 1020.85 1020.38 1019.88 1019.51 1019.12 1018.68 1018.25 1017.85 1016.94 1016.13 1015.66 1015.07 1013.91 1012.70 1011.24 1010.49 1009.69 1008.63 1007.98 1007.80 1007.60 1008.16 1008.76 1009.10 1009.79 1010.43 1011.16 1011.05 1011.23 1011.42 1011.06 1009.61 1008.42 1007.60 1007.22 1007.00 1007.00 1007.28 1007.50 1007.71 1007.75 1007.62 1007.84 1008.05 1007.85 1007.67 1007.11 1007.12 1007.46 1007.35 1007.67
1021.94 1021.40 1020.92 1020.32 1020.05 1019.69 1019.20 1018.61 1018.14 1018.27 1017.90 1016.77 1015.75 1014.67 1013.24 1012.03 1010.98 1010.17 1009.68 1009.17 1008.34 1007.83 1007.39 1007.45 1007.79 1008.39 1009.21 1009.62 1009.96 1010.53 1010.96 1011.28 1011.36 1010.28 1008.94 1007.97 1007.19 1007.09 1007.13 1006.92 1006.92 1007.11 1007.21 1007.42 1007.49 1007.63 1007.61 1007.55 1007.37 1007.33 1007.77 1008.11 1008.28 1008.61
1021.48 1020.74 1020.12 1020.05 1019.69 1019.10 1018.49 1017.96 1017.40 1017.45 1017.05 1016.22 1015.05 1013.42 1012.02 1011.47 1010.55 1009.96 1009.44 1008.74 1007.62 1007.34 1007.48 1007.33 1007.36 1008.13 1008.80 1009.19 1009.76 1010.23 1010.64 1010.55 1009.83 1008.80 1007.80 1007.48 1007.40 1006.97 1006.94 1006.50 1006.68 1006.83 1007.08 1007.32 1007.27 1007.52 1007.79 1007.99 1008.02 1008.07 1008.59 1008.87 1009.12 1009.23
1021.32 1021.00 1020.30 1019.84 1019.32 1018.66 1017.79 1017.80 1017.15 1016.67 1015.96 1014.78 1013.29 1012.20 1012.04 1011.30 1010.43 1009.64 1009.09 1008.43 1007.61 1007.50 1007.87 1008.36 1008.19 1007.40 1007.84 1008.53 1008.99 1008.95 1009.02 1008.19 1007.54 1007.43 1007.16 1006.88 1007.00 1006.97 1006.84 1006.54 1006.58 1006.89 1007.22 1007.41 1007.42 1007.51 1007.82 1008.00 1008.36 1008.63 1009.62 1009.89 1009.70 1009.77
1021.29 1020.86 1020.30 1019.74 1019.31 1018.54 1017.71 1016.95 1016.41 1015.36 1014.44 1013.28 1012.54 1011.52 1011.24 1010.68 1009.85 1009.08 1008.32 1007.76 1007.65 1007.24 1007.29 1007.78 1006.95 1007.24 1007.43 1007.40 1007.95 1006.99 1006.63 1006.47 1006.41 1006.30 1006.30 1006.26 1006.10 1005.71 1006.02 1006.19 1006.40 1006.72 1007.09 1007.31 1007.60 1008.05 1008.36 1008.85 1009.47 1009.95 1010.14 1010.26 1010.40 1010.45
1020.82 1020.42 1019.84 1019.18 1019.13 1018.96 1018.35 1016.51 1015.82 1014.91 1013.42 1012.31 1011.36 1010.82 1010.44 1009.68 1008.82 1008.17 1007.55 1006.90 1006.48 1006.12 1006.22 1006.54 1006.88 1006.74 1006.35 1006.04 1005.85 1005.88 1005.69 1005.57 1005.68 1005.62 1005.53 1005.49 1005.37 1005.43 1005.17 1005.73 1006.17 1006.62 1007.02 1007.46 1007.79 1008.24 1008.76 1009.14 1009.59 1010.18 1010.65 1010.77 1011.17 1011.39
1020.02 1019.55 1019.19 1018.72 1018.45 1018.43 1017.80 1016.35 1015.17 1014.30 1012.97 1011.71 1010.97 1010.46 1009.83 1009.14 1008.14 1007.41 1006.87 1006.42 1006.19 1005.63 1005.37 1005.34 1005.59 1005.23 1004.71 1004.27 1004.26 1004.40 1004.16 1003.92 1004.44 1005.02 1005.13 1004.97 1004.93 1005.40 1005.45 1005.47 1005.92 1006.25 1006.71 1007.38 1007.83 1008.24 1008.94 1009.51 1009.76 1010.26 1010.77 1011.22 1011.48 1011.95
1019.55 1018.93 1018.40 1018.49 1018.15 1017.91 1017.31 1016.01 1014.87 1013.57 1012.34 1011.53 1010.55 1010.21 1009.57 1008.63 1008.08 1007.43 1006.79 1006.11 1006.04 1005.56 1005.21 1004.57 1003.93 1003.55 1003.35 1003.27 1002.76 1003.06 1003.25 1003.22 1003.55 1003.84 1004.32 1004.67 1004.34 1004.77 1005.09 1005.29 1005.59 1006.03 1006.56 1007.22 1007.67 1008.31 1008.77 1009.24 1009.68 1010.23 1010.79 1011.29 1011.58 1012.01
1019.07 1018.53 1018.41 1017.85 1017.79 1017.14 1016.31 1015.13 1014.34 1013.13 1012.60 1011.76 1011.06 1010.02 1009.61 1008.84 1007.99 1007.44 1006.62 1006.18 1005.64 1005.19 1004.57 1003.85 1003.17 1002.58 1002.13 1001.82 1001.78 1001.79 1001.90 1002.05 1002.31 1002.71 1003.21 1003.50 1004.15 1004.56 1004.57 1004.67 1005.63 1006.22 1006.46 1006.79 1007.20 1007.89 1008.39 1008.71 1009.47 1010.22 1010.83 1011.48 1011.79 1012.05
1018.36 1018.19 1018.11 1017.57 1017.07 1016.31 1015.06 1013.84 1013.81 1013.03 1012.57 1011.50 1010.58 1010.27 1009.69 1009.09 1008.20 1007.14 1006.92 1006.03 1005.49 1004.50 1004.22 1003.80 1002.71 1001.60 1001.43 1000.89 1000.63 1000.93 1001.43 1001.46 1001.78 1002.19 1002.64 1002.81 1003.16 1003.53 1003.98 1004.45 1004.80 1005.73 1006.24 1006.60 1006.74 1007.53 1008.26 1008.77 1009.27 1010.21 1011.07 1011.65 1012.07 1012.40
1017.90 1018.27 1017.66 1016.96 1016.58 1015.77 1014.61 1013.61 1012.87 1012.58 1011.98 1011.60 1011.18 1010.50 1009.67 1008.96 1007.91 1007.53 1007.10 1006.54 1006.23 1005.95 1005.28 1004.64 1003.76 1002.55 1001.75 1001.30 1000.79 1000.81 1000.83 1000.87 1000.97 1001.04 1001.57 1002.21 1002.76 1003.27 1003.47 1003.93 1004.65 1005.26 1005.51 1006.03 1006.68 1007.44 1008.11 1008.67 1009.23 1010.14 1010.94 1011.66 1012.25 1012.63
1018.50 1017.82 1017.72 1016.87 1015.80 1015.29 1014.28 1013.40 1012.90 1012.65 1012.61 1012.24 1010.80 1009.80 1009.11 1008.33 1007.94 1007.57 1007.40 1007.69 1007.25 1006.84 1006.26 1005.39 1004.59 1003.72 1002.90 1001.74 1000.94 1000.52 1000.03 1000.14 1000.72 1000.69 1000.83 1001.29 1001.95 1002.87 1003.46 1003.80 1004.28 1004.83 1005.12 1005.89 1006.61 1007.13 1007.85 1008.54 1009.19 1009.99 1010.86 1011.55 1012.19 1012.74
1018.08 1016.79 1016.64 1015.60 1014.78 1014.25 1013.75 1013.54 1013.41 1013.40 1012.83 1012.23 1011.04 1010.00 1009.37 1008.50 1007.88 1007.92 1008.26 1008.47 1008.06 1007.69 1007.10 1006.23 1005.44 1004.50 1003.69 1003.08 1002.36 1001.07 1000.61 1000.25 999.93 1000.29 1000.55 1000.76 1001.39 1001.96 1002.80 1003.67 1004.21 1004.21 1004.85 1005.16 1005.70 1006.73 1007.57 1008.36 1009.04 1009.93 1010.75 1011.54 1012.12 1012.63
1017.47 1016.26 1015.18 1014.32 1014.02 1013.88 1013.70 1013.38 1013.29 1013.15 1012.54 1011.74 1010.94 1010.34 1009.95 1009.30 1008.92 1009.15 1008.79 1008.79 1008.47 1008.27 1007.52 1006.78 1006.10 1005.35 1004.56 1003.69 1002.93 1002.42 1001.36 1000.38 999.96 999.81 999.95 1000.37 1000.78 1001.26 1001.84 1002.45 1002.86 1003.17 1003.50 1004.34 1004.96 1005.88 1006.90 1007.93 1008.88 1009.67 1010.50 1011.29 1011.86 1012.36
1016.59 1015.49 1014.62 1014.08 1013.90 1013.77 1013.77 1013.30 1012.79 1012.13 1011.46 1010.77 1011.18 1011.00 1010.78 1010.49 1010.26 1010.09 1009.82 1009.42 1008.56 1008.23 1008.03 1007.63 1006.97 1006.18 1004.93 1004.62 1004.34 1003.86 1002.68 1001.32 1000.50 1000.34 1000.96 1001.59 1002.11 1002.34 1002.41 1002.28 1002.32 1002.85 1003.29 1003.89 1004.54 1005.43 1006.29 1007.29 1008.35 1009.27 1010.13 1010.88 1011.76 1012.30
1015.60 1014.57 1014.27 1013.54 1013.54 1013.28 1012.62 1012.24 1011.63 1011.00 1010.51 1010.54 1010.55 1010.41 1010.40 1011.20 1011.80 1011.30 1011.01 1010.59 1009.90 1009.28 1008.60 1008.16 1007.51 1006.77 1006.32 1005.93 1005.54 1005.39 1004.76 1003.64 1002.71 1002.83 1003.28 1003.57 1003.39 1003.72 1003.45 1003.26 1003.79 1003.10 1003.01 1004.34 1005.03 1005.15 1005.94 1006.99 1008.03 1009.05 1009.97 1010.82 1011.70 1012.33
1014.54 1013.92 1013.75 1012.87 1012.52 1012.03 1011.34 1011.09 1010.56 1010.20 1010.17 1010.16 1010.15 1010.01 1010.38 1011.98 1012.86 1012.43 1011.76 1011.10 1010.71 1010.48 1010.19 1009.68 1008.80 1007.84 1007.66 1007.52 1007.24 1006.81 1006.03 1005.76 1005.68 1005.33 1004.89 1004.87 1004.92 1004.79 1004.37 1004.03 1004.20 1004.63 1003.96 1004.43 1005.29 1006.21 1006.78 1007.66 1008.87 1009.78 1010.63 1011.48 1012.16 1012.72
1013.70 1013.43 1012.87 1012.17 1011.39 1010.71 1010.19 1009.85 1009.73 1009.48 1009.34 1009.23 1009.21 1009.53 1010.38 1011.82 1012.71 1013.09 1013.01 1012.64 1012.21 1011.73 1011.06 1010.41 1009.78 1009.27 1009.00 1008.75 1008.33 1007.80 1007.27 1006.97 1006.67 1006.54 1006.23 1005.92 1005.70 1005.27 1004.82 1004.39 1004.02 1004.87 1005.39 1004.93 1005.81 1006.70 1007.54 1008.50 1009.35 1010.30 1011.23 1011.99 1012.61 1013.03
1013.04 1012.66 1012.29 1011.60 1010.80 1010.10 1009.69 1009.35 1009.10 1008.99 1008.91 1009.12 1009.97 1010.25 1011.19 1012.03 1013.09 1013.75 1014.02 1013.59 1013.05 1012.55 1012.10 1011.55 1010.91 1010.36 1009.97 1009.74 1009.41 1009.11 1009.09 1008.79 1008.57 1008.19 1007.67 1007.14 1006.68 1006.33 1005.99 1005.59 1005.06 1005.43 1006.56 1006.81 1007.11 1007.61 1008.19 1009.08 1010.11 1010.86 1011.71 1012.44 1013.01 1013.47
1012.33 1011.77 1011.54 1011.54 1010.99 1010.65 1009.76 1009.42 1009.17 1009.08 1009.59 1010.74 1011.97 1012.20 1012.66 1013.43 1014.86 1015.41 1015.12 1014.80 1014.26 1013.64 1012.99 1012.50 1012.08 1011.69 1011.26 1010.92 1010.66 1010.23 1010.02 1009.92 1009.73 1009.37 1008.85 1008.54 1008.30 1007.92 1007.52 1007.18 1007.00 1007.39 1007.82 1008.51 1009.13 1009.56 1009.96 1010.54 1011.11 1011.75 1012.42 1012.99 1013.56 1014.07
Wind_Speed
16 16 17 16 16 16 17 18 19 19 19 19 18 17 16 15 14 3 4 4 3 4 12 14 12 11 9 5 4 4 6 5 4 7 4 4 3 3 3 3 6 3 4 2 3 2 2 12 15 5 5 8 14 16
16 15 15 15 14 15 16 17 20 20 18 19 18 17 17 16 15 10 3 2 2 5 8 9 18 22 18 24 4 2 2 2 3 3 3 4 3 3 5 3 3 2 3 4 5 3 7 14 10 13 11 12 12 14
17 16 14 15 16 16 17 17 19 20 20 18 18 18 17 16 16 8 3 3 1 4 7 2 7 8 3 12 10 4 2 3 3 2 2 2 4 2 3 2 4 2 4 1 4 3 7 15 14 12 11 12 17 18
13 15 17 17 17 17 18 19 18 20 20 19 17 17 17 17 15 13 5 2 2 4 5 7 4 11 6 8 10 6 6 3 1 1 3 3 3 3 3 4 3 2 2 5 4 7 5 8 10 13 14 17 19 12
15 18 19 19 18 18 18 19 20 20 21 20 21 19 18 17 16 10 8 7 8 4 4 7 12 6 4 10 11 8 7 5 2 2 3 3 3 2 1 3 3 3 2 2 2 7 4 6 8 8 15 18 25 9
16 19 19 20 19 19 19 19 21 21 22 22 23 22 20 17 13 3 4 2 7 6 4 5 5 5 3 8 10 11 7 4 2 2 4 4 3 4 0 2 5 4 1 2 3 6 3 7 8 13 12 17 20 18
17 18 19 20 20 20 20 21 23 24 23 23 22 21 19 15 4 3 3 2 2 2 3 5 5 6 7 6 3 3 5 3 3 3 3 3 2 3 2 1 3 3 5 4 3 5 6 9 7 13 12 13 14 17
16 18 19 20 20 21 21 23 24 25 26 26 26 22 19 15 10 6 8 16 6 4 1 3 6 5 4 3 3 4 5 3 3 4 3 2 3 2 2 5 2 3 4 6 6 6 3 6 10 10 9 10 13 13
17 18 19 20 20 21 21 23 24 25 28 29 28 18 1 2 3 2 3 6 2 2 3 3 2 5 2 3 3 3 3 3 2 4 4 4 2 1 4 2 2 4 1 4 5 6 7 6 5 8 7 9 9 9
16 18 19 20 20 21 21 22 23 25 29 28 3 1 2 2 2 2 2 0 0 2 2 5 3 4 2 1 3 2 1 2 0 5 0 3 3 2 5 5 4 4 5 2 4 5 4 3 6 5 6 5 8 10
18 19 20 20 21 22 22 21 21 22 10 5 5 3 4 13 1 3 3 3 3 4 4 5 7 4 3 3 3 1 2 2 2 4 2 1 2 4 5 5 3 6 1 6 6 4 4 4 4 3 3 7 10 11
17 19 20 21 22 22 21 16 14 5 2 5 6 6 3 2 3 3 3 3 6 6 4 4 6 6 3 3 3 3 1 3 3 1 1 2 4 6 5 5 3 4 6 5 5 6 4 2 2 5 6 6 6 6
18 19 20 20 20 18 13 15 16 17 12 2 2 3 2 2 2 5 5 4 4 4 5 4 3 5 1 3 2 3 2 5 3 3 3 4 2 5 7 5 4 5 7 6 7 4 4 2 4 5 7 6 7 11
18 20 20 20 16 13 16 18 19 11 4 3 3 4 5 5 6 6 5 3 5 3 5 4 2 4 2 3 3 2 4 3 2 2 4 2 3 2 4 5 5 7 8 7 7 7 4 3 4 8 9 6 7 8
19 21 21 9 11 15 18 19 16 2 2 4 3 5 7 6 5 4 5 5 7 5 4 0 3 4 0 3 2 1 1 3 6 6 4 4 3 4 7 4 4 6 7 6 6 6 5 4 6 8 6 6 7 6
19 19 1 13 18 21 22 14 3 3 3 4 6 4 5 3 5 3 3 5 5 3 4 3 2 4 4 4 4 6 5 6 6 5 3 5 7 9 6 6 6 6 5 4 6 6 6 5 5 6 6 6 6 6
15 4 15 21 23 24 24 3 2 5 5 5 5 5 5 7 9 9 4 4 6 2 3 2 5 8 2 2 3 5 6 5 5 3 4 7 6 6 7 5 6 6 6 5 4 5 5 4 5 8 8 5 7 7
4 7 18 23 18 11 2 3 3 5 7 6 5 4 3 4 8 6 6 6 1 3 5 4 4 2 5 6 4 5 4 3 3 3 5 8 11 11 6 7 9 8 7 7 6 5 6 7 7 5 6 5 6 7
8 11 19 23 12 4 3 4 3 5 6 5 4 3 4 5 7 9 8 9 6 6 3 4 3 3 4 4 4 3 4 4 5 4 4 8 9 9 7 6 8 7 7 7 6 5 5 7 6 5 4 5 4 4
19 18 18 19 10 2 4 5 3 5 4 5 3 7 4 5 6 5 8 7 4 3 3 5 7 5 5 5 6 5 5 5 4 3 1 2 3 3 4 9 7 7 5 5 6 7 5 4 4 5 5 5 6 4
8 1 3 4 3 4 4 4 5 5 5 4 4 3 5 3 4 6 4 2 1 3 3 4 4 5 7 6 4 5 6 6 6 6 5 4 3 3 4 3 5 4 4 4 7 7 8 7 4 5 6 5 5 6
5 7 3 4 4 4 5 5 5 4 4 4 6 5 5 3 4 4 4 1 3 5 4 4 6 7 8 6 6 7 6 6 6 3 2 6 7 7 5 7 5 4 4 6 7 8 6 5 7 8 8 5 5 5
9 3 3 3 4 4 8 3 4 4 4 4 4 5 5 3 4 3 3 3 4 3 8 8 12 8 8 13 7 3 7 8 5 5 5 7 7 5 5 4 6 8 7 4 7 7 5 8 10 10 8 7 5 5
4 2 4 3 5 5 4 4 3 3 3 3 3 9 10 5 3 3 5 3 4 8 10 13 11 8 5 4 1 4 5 5 5 5 6 6 5 5 8 7 5 4 6 8 8 7 7 8 11 10 9 8 6 6
1 6 3 6 5 4 5 4 5 2 6 6 6 5 4 2 2 2 5 3 6 8 9 10 9 8 9 4 5 5 4 3 5 5 6 10 7 5 4 3 6 7 7 9 7 9 8 8 9 10 10 9 9 8
4 5 7 5 4 3 2 3 5 3 8 4 5 4 2 4 2 2 4 6 6 7 9 8 8 9 9 8 8 6 5 4 5 4 5 9 10 10 10 9 7 5 4 7 10 11 12 10 11 11 9 10 9 10
5 6 5 4 3 3 5 3 3 3 5 4 4 6 6 6 6 4 2 2 2 4 8 7 6 7 7 8 6 9 8 7 2 3 5 7 9 10 11 12 12 10 8 11 12 15 15 14 13 12 11 9 10 9
6 5 5 5 6 2 6 3 4 5 5 4 3 2 3 2 2 3 4 10 6 3 4 6 9 9 10 10 9 10 9 9 9 9 9 9 8 7 6 1 4 12 9 9 12 13 14 14 13 13 13 12 8 6
5 4 4 11 7 5 5 4 5 4 3 2 1 1 1 4 6 6 6 8 8 8 9 9 9 7 9 8 9 10 9 11 13 14 11 6 5 7 7 7 5 1 9 9 5 12 15 13 15 13 14 11 9 7
5 4 5 4 4 4 5 6 4 4 3 4 4 3 3 4 6 8 8 10 10 9 8 8 7 8 9 9 8 8 9 10 10 6 5 5 4 4 5 4 4 4 5 10 10 12 17 16 15 12 11 9 7 6
4 1 4 4 5 4 9 8 8 8 4 4 4 5 4 5 3 7 11 10 8 7 8 9 8 8 8 7 7 7 8 10 12 13 7 5 5 6 6 3 3 4 1 11 12 13 13 12 11 12 11 11 9 7
3 4 3 5 7 4 5 3 3 3 2 1 6 5 4 4 5 6 9 10 9 8 9 9 9 8 8 6 7 7 8 6 8 8 11 8 8 10 9 8 8 10 8 8 9 11 14 14 11 11 10 10 8 9
4 4 2 3 4 4 5 2 2 2 5 5 7 7 5 4 5 5 5 8 7 8 7 7 7 7 10 10 10 8 9 8 11 13 15 15 14 11 8 9 12 13 15 13 12 12 14 14 11 11 11 11 11 10
Wind_Direction
299 299 301 304 307 309 310 312 314 318 316 313 315 315 315 313 312 286 250 209 185 248 275 259 273 268 272 272 274 326 335 356 328 5 344 335 303 336 299 310 332 360 279 237 218 243 283 312 287 78 332 318 334 327
297 301 305 306 307 308 310 314 319 319 315 313 312 309 310 310 306 305 247 238 202 247 261 301 278 263 247 247 230 245 219 282 316 336 359 305 299 310 326 325 337 351 357 315 359 39 281 276 14 7 356 352 310 317
304 310 312 307 308 311 311 309 310 318 317 314 313 308 304 303 303 293 256 269 263 259 276 258 249 257 170 212 182 174 217 201 296 175 291 282 286 313 320 314 313 340 34 329 235 32 25 11 354 357 339 340 303 277
318 315 314 314 312 311 315 313 312 315 318 313 308 303 300 300 300 295 264 213 193 269 275 280 293 278 264 168 163 163 137 67 220 239 236 260 262 218 308 285 288 257 325 325 314 351 349 8 353 332 339 330 339 4
319 317 315 315 317 317 318 316 313 314 314 315 317 314 311 306 303 295 259 232 200 217 298 293 307 261 165 143 144 139 126 122 223 261 232 243 243 214 29 287 306 328 333 36 351 282 339 320 261 354 9 339 334 357
318 317 319 320 319 317 318 317 311 312 313 310 309 309 308 305 311 301 308 166 191 189 280 303 283 292 133 169 167 161 165 146 211 225 249 266 242 113 150 291 257 296 326 199 263 287 256 274 21 36 14 0 358 30
320 323 322 320 320 320 318 316 315 312 312 310 304 298 294 292 270 218 244 169 27 192 261 304 291 267 182 169 206 161 166 188 194 251 252 242 297 153 126 295 290 330 311 328 323 346 360 4 357 29 22 355 5 24
325 325 322 323 324 323 320 319 317 317 312 307 302 295 288 281 272 257 246 250 209 214 259 268 271 319 161 199 253 170 153 160 214 226 282 249 337 66 52 302 17 331 7 5 360 7 342 6 14 7 37 15 23 22
324 321 322 324 324 325 323 322 320 315 311 308 306 302 38 109 198 289 55 97 128 180 241 261 222 265 339 5 278 327 137 171 189 205 245 97 331 72 224 202 289 336 105 346 10 15 50 62 62 2 6 28 26 22
322 321 324 324 325 324 321 323 323 318 314 310 338 50 113 15 200 194 2 94 137 243 247 243 234 267 53 172 267 348 357 246 39 248 283 90 244 243 198 189 222 233 253 309 63 39 32 39 60 30 3 10 34 25
322 324 325 326 326 324 323 322 321 323 330 360 357 350 306 289 254 218 206 179 184 233 219 233 203 214 270 164 238 141 242 300 330 282 76 297 275 231 206 175 200 224 255 99 123 106 82 77 78 43 28 52 39 30
326 326 325 328 326 324 319 320 328 344 306 272 282 296 274 302 250 243 221 203 201 233 215 201 202 182 256 120 95 327 160 23 262 324 310 261 239 198 182 165 181 112 117 103 106 98 74 64 52 49 42 61 57 32
326 326 328 328 323 321 349 346 334 323 314 273 199 235 211 230 247 218 219 233 226 218 205 196 166 154 70 81 71 77 66 238 339 28 244 224 251 156 160 160 165 118 143 117 114 114 110 55 28 32 53 73 59 43
324 323 324 318 319 342 335 324 321 327 294 267 229 248 202 205 238 206 224 243 268 312 273 151 131 138 168 107 143 140 228 77 344 325 246 247 222 150 188 168 157 138 139 150 154 146 143 77 33 55 64 69 60 42
324 320 317 306 329 328 326 320 312 256 261 266 253 240 230 226 267 259 254 265 275 264 244 355 87 117 151 138 175 175 239 263 196 231 235 203 143 341 295 208 159 145 130 129 120 141 147 93 59 61 68 76 79 41
324 318 197 350 337 335 325 320 284 176 241 237 238 273 281 300 279 311 295 298 288 342 356 337 149 124 194 173 139 211 148 221 243 220 210 159 194 203 237 187 172 162 130 149 133 127 132 133 90 74 52 65 91 65
324 240 322 326 326 323 310 263 248 219 227 238 244 229 243 273 271 280 282 277 307 357 137 112 264 217 123 156 190 174 203 214 207 204 193 183 152 285 258 198 150 147 148 128 129 122 124 120 88 78 81 65 65 60
243 284 309 312 322 315 279 229 253 254 240 244 246 231 228 232 273 276 268 271 234 230 153 213 294 137 219 179 250 237 223 243 236 202 190 178 183 208 205 172 163 160 157 157 151 119 103 103 112 107 109 88 69 50
294 301 301 301 307 303 287 273 200 259 250 267 267 266 229 247 246 259 272 276 259 241 159 155 190 226 236 230 197 211 196 180 199 231 206 206 191 197 200 157 153 155 168 153 149 141 143 140 139 134 127 90 87 57
299 290 287 289 306 228 263 263 267 268 259 246 287 280 245 237 263 255 272 278 272 262 216 179 196 213 218 224 193 197 208 192 136 135 177 126 127 247 206 163 169 177 173 150 141 123 119 115 118 125 135 132 113 91
303 246 309 331 279 210 255 268 255 237 260 244 264 325 273 326 303 284 268 258 333 223 265 254 233 228 227 246 204 185 225 179 181 163 181 185 173 180 176 177 168 170 149 144 143 142 134 157 157 129 127 123 112 111
248 274 263 221 232 252 238 233 229 277 321 275 298 271 258 264 292 279 272 255 224 240 225 248 264 257 256 246 233 201 199 169 189 117 102 128 175 215 200 164 159 180 150 158 146 153 169 149 131 132 127 125 115 113
259 212 225 250 243 238 253 202 241 216 245 270 345 346 306 299 265 301 277 294 274 276 329 334 298 258 249 247 233 180 179 162 155 167 182 192 196 180 144 150 147 144 151 174 149 145 141 144 128 129 132 126 129 114
100 219 253 253 204 260 273 266 248 272 279 279 267 285 282 261 259 289 257 305 0 351 355 348 350 327 320 297 227 204 208 201 199 171 189 185 161 174 162 148 147 156 159 147 146 144 140 137 130 143 141 142 139 129
320 268 210 253 262 232 251 249 251 310 339 301 265 245 275 293 210 271 274 24 341 353 346 347 349 349 341 294 309 293 254 170 202 187 202 181 152 112 95 124 143 159 158 148 156 151 142 137 131 135 145 143 142 136
248 242 179 230 251 214 278 338 6 0 311 276 286 263 270 282 216 38 46 1 2 350 342 340 348 346 346 334 342 346 347 279 145 135 152 149 158 156 157 157 168 169 182 172 152 157 150 147 136 136 134 142 137 134
249 272 245 237 255 283 278 286 295 258 264 251 272 356 332 347 13 359 84 300 317 328 331 323 345 345 311 318 351 343 336 349 16 191 162 160 163 169 165 173 177 192 168 171 160 159 157 152 149 148 143 143 151 146
242 268 252 268 290 306 291 261 253 228 229 202 98 223 240 266 292 3 332 342 298 257 322 20 10 8 357 12 12 355 345 353 31 69 71 57 53 36 10 13 148 153 164 166 160 157 153 152 151 148 144 137 134 132
243 259 282 269 267 232 230 213 231 223 227 279 287 298 338 62 354 353 357 353 359 19 13 3 4 15 17 3 15 8 13 17 31 52 59 38 26 16 9 30 344 63 124 117 130 143 143 143 143 141 136 133 129 119
253 199 251 254 233 236 230 193 237 261 258 228 217 249 121 92 27 14 7 14 15 13 356 346 352 16 20 7 358 9 23 33 31 23 30 44 8 340 347 22 26 329 123 120 113 105 103 108 110 114 117 117 118 120
258 266 257 238 250 231 246 254 263 260 246 230 213 221 121 136 124 39 21 8 4 359 357 357 1 8 18 14 1 359 17 12 13 18 22 34 12 5 345 327 123 84 292 126 125 125 124 118 120 120 121 125 130 129
249 235 267 287 306 275 281 228 218 220 238 129 24 8 93 69 52 22 7 358 5 8 356 1 0 359 14 24 24 29 20 3 357 2 12 25 32 37 30 35 60 83 69 64 95 111 113 115 118 120 121 118 113 107
279 271 294 311 298 328 294 334 301 302 48 58 33 21 38 69 79 7 349 359 357 350 354 2 8 17 26 27 23 19 24 29 27 33 37 33 25 16 33 52 62 66 77 79 77 80 83 94 103 113 119 121 123 123